Location: ??????????
(54.8537°N, 38.8755°E)
Time: 02:19:56
(UTC+00:00)

Vanguard 2 Rocket - Pass Details

Date: 15 September 2024
Orbit: 553 x 3298 km, 32.9° (Epoch: 10 October)

Event Time Altitude Azimuth Distance (km) Brightness Sun altitude
Rises 00:34:56 0° 236° (SW) 5,127 - -19.7°
Reaches altitude 10° 00:38:24 10° 226° (SW) 4,498 - -19.3°
Exits shadow 00:41:58 20° 212° (SSW) 4,055 9.6 -18.9°
Maximum altitude 00:49:22 31° 171° (S) 3,972 9.9 -18.0°
Drops below altitude 10° 01:04:19 10° 120° (ESE) 6,168 11.5 -16.2°
Sets 01:10:11 0° 112° (ESE) 7,277 12.1 -15.5°
